COSMOS 2251 DEB, 36622

Orbit data source: Space-Track

COSMOS 2251 DEB, 36622 is space debris in LEO originally from a launch on Wed, 16 Jun 1993 UTC launched from the Plesetsk Missile And Space Complex (PKMTR). The debris from Iridium 33, an American commercial communications satellite, has been tracked extensively since its accidental collision with the defunct Russian satellite Cosmos 2251 in 2009. This event, occurring at high speed in low Earth orbit (LEO), generated thousands of pieces of space debris, significantly increasing the risk of further collisions. The Iridium 33 debris cloud has impacted space traffic management and orbital debris mitigation strategies, making it a subject of ongoing study in space situational awareness.

Loading next visibility...
Identifier
36622, 1993-036BEL
Orbit
LEO
Country
Flag of CISCIS
Related business
Manufacturer
Unknown
Mission
Spacecraft
Bus & Motor
Unknown
Mass
Unknown
Launch date (UTC)
1993-06-16 (33 years ago)
Launch vehicle
Unknown
Launch site
Plesetsk Missile And Space Complex (PKMTR)
Object type
Payload
Rocket body
Debris
Shape & HBR
Unknown shape, 0.1 m
Radar Cross Section
Small (<0.1 m²)

Expand to show TLE details & history
Last TLE update: 3 days ago

TLE from 3 days ago
0 COSMOS 2251 DEB
1 36622U 93036BEL 25350.15404624  .00003692  00000-0  51790-3 0  9996
2 36622  74.0127 138.7807 0068816 273.5209  85.8096 14.76229429668005
Epoch: 2025-12-16T03:41Z
TLE epoch observation values (Epoch: 2025-12-16T03:41:49.595Z)
Latitude
-0.00001°
Longitude
-1.71828°
Altitude
640.71 km
Speed
7.54 km/s
True Right ascension
09h 15m 07s
True Declination
0° 00' 00"
Sunlit
Object was in full shadow at epoch
Visualization orbit readout
Latitude
Unknown
Longitude
Unknown
Altitude
Unknown
Speed
Unknown
Apparent Right ascension
Unknown
Apparent Declination
Unknown
Sunlit
N/A
Visualization observer readout
Local Sidereal Time
21:11:06
Azimuth
Unknown
Elevation
Unknown
Doppler factor
Unknown
Orbital elements
Apogee altitude
687.121 km
Perigee altitude
590.545 km
Semi-major axis
7,016.97 km
Eccentricity
0.00688
Inclination
74.0127°
RAAN
138.7807°
Arg. of periapsis
273.5209°
True anomaly
86.59654°
Mean anomaly
85.8096°
Eccentric anomaly
86.20302°
Mean motion
3.69249 °/min
Orbital period
97.5 mins
BSTAR
0.0005179
Loading maneuver chart data...
Computing Atmospheric mass density...

Documentation

Showing up to 5 results
|